Theta_e
325 332 329 324 326 321 317 319 316 315 316 312 313 315 315 314 312 310 312 312 310 312 315 314 312 312 311 308 305 303 300 299 299 297 296 295 294 295 296 296 297 298 296 294 292 292 292 292 292 291 291 291 290 290 290 290 290 289 289 289 288 288 288 288 287 287 286 286 285 285 285 284 284 284 283 283 283 283 283 283 284 284 285 285 285 285
326 326 327 328 326 319 314 316 315 312 312 311 312 314 314 314 312 310 311 311 308 310 315 314 311 311 310 307 305 302 300 299 299 297 296 295 294 295 296 296 297 297 295 293 293 292 292 292 291 291 291 290 290 290 290 290 289 289 288 288 288 288 288 287 287 286 285 285 284 284 284 284 283 283 283 283 283 283 283 283 283 284 284 284 284 284
329 325 328 327 319 313 312 312 312 311 312 312 312 314 315 314 314 313 311 309 307 309 315 316 311 309 310 308 305 303 300 300 299 298 297 295 294 295 295 296 296 296 296 295 293 292 292 292 291 291 291 290 290 290 290 290 289 288 288 288 288 287 287 286 286 285 285 284 283 283 283 283 283 283 283 283 282 283 283 283 283 283 283 283 283 283
327 332 330 321 314 311 312 312 312 311 312 314 313 314 316 315 315 316 313 311 310 309 312 313 310 308 308 308 307 303 300 301 300 299 297 295 295 295 295 295 296 296 296 296 295 292 292 292 291 291 290 290 290 290 290 289 289 288 288 287 287 287 286 286 285 285 284 283 283 283 282 282 282 282 282 282 282 282 282 282 282 282 282 282 282 283
323 326 319 315 313 312 313 314 314 313 315 320 318 314 315 314 314 315 313 312 312 313 313 310 309 310 309 308 308 303 300 301 300 298 296 295 295 295 295 296 296 297 297 297 296 293 291 291 291 291 290 290 290 290 290 289 288 288 287 287 286 286 286 285 285 284 284 283 282 282 282 282 282 282 282 282 282 281 281 281 281 281 281 281 281 282
319 315 312 314 314 313 314 315 319 317 317 323 323 317 316 315 315 315 313 312 313 316 314 309 311 316 311 308 308 303 300 300 298 296 295 295 295 295 295 296 297 299 298 298 296 293 291 291 291 291 290 290 290 290 289 288 288 287 287 286 286 285 285 285 284 284 283 282 282 281 281 281 281 281 281 281 281 281 281 281 280 280 281 280 281 281
315 310 313 317 316 318 317 317 322 319 315 318 319 318 317 314 312 312 310 312 315 315 311 308 311 313 309 310 310 304 300 300 297 295 295 294 294 294 294 295 297 297 297 297 295 292 291 291 291 290 290 290 290 290 289 288 287 287 286 286 285 285 284 284 283 283 283 282 281 281 281 281 281 281 281 280 280 280 280 280 280 280 280 280 280 281
314 310 315 316 316 319 317 318 321 317 317 320 316 315 314 310 310 311 309 310 313 311 309 309 309 308 307 310 310 304 301 300 296 295 295 294 294 293 294 295 296 296 296 296 296 294 291 290 291 290 290 290 289 289 288 288 287 286 286 285 285 284 284 283 283 283 282 282 281 281 280 280 280 280 280 280 280 280 280 280 280 279 280 280 280 281
314 313 316 317 316 317 319 324 323 316 318 321 313 309 309 308 309 310 308 310 310 308 309 310 307 308 311 311 306 301 301 301 297 295 294 294 293 293 293 294 295 296 296 296 297 294 290 290 291 290 289 290 289 289 288 287 287 286 286 285 285 284 283 283 282 282 282 281 281 280 280 280 280 280 279 279 279 279 279 279 279 279 279 280 280 280
314 313 318 320 319 319 323 324 321 317 316 314 310 309 311 310 308 308 308 309 310 310 310 310 308 309 314 313 304 299 301 302 299 297 295 294 293 292 293 294 294 295 295 297 295 291 290 291 290 290 290 289 289 288 288 287 286 286 285 285 284 284 283 282 282 282 281 281 280 280 280 279 279 279 279 279 279 279 279 278 279 279 279 279 279 279
313 308 313 316 316 319 320 313 311 313 311 309 311 312 313 313 310 310 311 309 310 313 313 312 310 309 313 313 304 301 303 302 301 299 296 294 293 292 292 293 293 294 294 297 294 289 289 291 290 289 289 289 289 288 287 286 286 286 285 284 284 283 283 282 281 281 281 280 280 279 279 279 279 279 278 278 278 278 278 278 278 278 278 278 278 278
314 309 312 313 312 314 314 309 309 312 312 312 315 313 314 316 314 314 314 312 313 320 318 310 307 307 311 312 305 302 302 300 301 300 297 295 293 292 292 292 293 293 294 296 295 292 289 289 289 289 289 289 288 287 287 286 286 286 285 284 283 283 282 281 281 281 280 280 279 279 279 279 278 278 278 278 278 278 278 277 277 277 277 277 277 277
319 316 313 310 309 311 314 313 311 313 314 313 314 314 316 319 320 319 318 315 316 321 312 303 304 306 308 310 306 303 302 299 299 299 298 296 293 292 292 292 292 293 295 295 295 296 292 288 288 289 288 288 288 287 286 286 286 285 284 284 283 282 282 281 280 280 280 279 279 278 278 278 278 278 277 277 277 277 277 277 277 277 277 277 277 277
324 321 312 310 312 312 314 315 315 317 313 310 312 317 320 321 322 322 320 317 319 320 309 300 303 307 307 308 306 304 302 299 298 298 298 296 293 292 292 292 293 293 295 295 294 297 294 288 288 288 288 288 287 287 286 286 285 284 284 283 282 282 281 281 280 280 279 279 278 278 278 278 277 277 277 277 277 277 277 276 276 276 276 276 276 276
324 326 319 315 315 312 310 314 322 322 312 308 311 315 318 320 323 323 323 322 321 319 310 301 304 311 312 307 301 298 296 296 297 296 296 294 292 292 292 292 294 293 294 295 295 297 292 287 288 288 288 288 287 286 286 286 285 284 283 283 282 281 281 280 280 279 279 278 278 277 277 277 277 277 277 276 276 276 276 276 276 276 276 275 275 275
318 326 320 309 307 309 310 311 314 318 313 307 307 309 312 317 319 319 319 317 312 311 309 304 307 311 308 302 296 293 293 293 295 294 293 293 292 292 293 292 292 292 293 294 295 296 291 287 288 288 287 287 286 286 286 285 284 284 283 282 281 281 280 280 279 278 278 278 277 277 277 276 276 276 276 276 276 276 276 275 275 275 275 275 274 274
316 323 314 304 305 306 307 306 306 313 316 308 305 307 310 310 311 314 313 308 305 309 310 308 309 309 307 304 295 292 293 292 292 292 291 292 292 292 292 291 291 292 293 294 295 295 290 287 288 288 287 287 286 286 285 284 284 283 282 282 281 280 280 279 279 278 278 277 277 276 276 276 276 275 275 275 275 275 275 275 275 275 274 274 274 274
318 320 312 308 311 304 299 303 304 305 309 309 309 309 307 305 306 310 313 309 307 311 312 308 309 309 312 309 296 291 294 292 291 291 291 291 292 292 291 291 292 292 293 294 294 293 289 287 288 288 287 286 286 285 284 284 283 282 282 281 280 280 279 278 278 277 277 276 276 276 275 275 275 275 275 275 275 275 275 275 275 274 274 274 274 273
317 318 313 306 307 303 299 305 308 302 301 306 309 305 306 310 310 309 310 311 312 314 315 312 311 310 311 310 300 294 293 293 291 290 291 292 291 291 291 291 291 292 293 293 293 293 289 287 287 287 286 286 285 284 284 283 283 282 281 280 280 279 278 278 277 277 276 276 275 275 275 275 274 274 274 274 275 275 275 274 274 274 274 274 273 273
315 319 317 304 301 303 302 307 313 308 300 301 302 300 303 308 311 309 308 310 315 316 317 317 316 314 312 310 307 299 293 293 292 290 291 291 290 291 291 291 291 291 292 292 293 294 291 287 287 287 286 285 284 284 283 282 282 281 280 280 279 278 278 277 277 276 276 275 275 275 274 274 274 274 274 274 274 274 274 274 274 274 274 273 273 273
313 317 319 307 301 304 306 307 311 311 305 302 301 301 301 302 306 309 306 306 311 313 315 316 316 317 312 307 308 302 295 293 292 290 291 291 290 290 290 291 291 291 292 293 293 295 291 286 287 287 285 285 284 283 283 282 281 280 279 279 278 277 277 276 276 275 275 275 274 274 274 273 273 273 273 274 274 274 274 274 274 274 273 273 273 272
315 316 317 311 306 308 310 307 306 309 309 305 304 304 303 302 305 310 309 307 307 310 313 315 316 318 309 302 304 302 296 293 292 291 292 291 290 290 290 291 291 291 293 293 294 295 290 285 286 286 284 284 283 282 282 281 280 279 279 278 277 277 276 276 275 275 274 274 274 273 273 273 272 273 273 273 273 274 274 274 273 273 273 272 272 272
315 316 314 313 313 309 304 303 303 305 305 304 305 306 305 304 306 311 314 310 307 306 307 308 312 314 305 299 301 300 296 294 292 292 292 291 290 290 290 291 292 293 294 293 294 293 287 285 286 285 284 283 282 282 281 280 279 279 278 277 277 276 275 275 274 274 274 273 273 273 272 272 272 272 272 273 273 273 273 273 273 273 272 272 272 272
312 315 313 314 317 310 301 299 301 301 300 303 305 304 304 305 306 309 311 310 310 308 305 306 310 311 303 298 299 297 295 294 293 292 292 291 290 290 290 291 292 293 293 293 293 291 285 284 285 283 283 282 281 281 280 279 279 278 277 277 276 275 275 274 274 273 273 273 272 272 272 271 272 272 272 272 272 273 273 273 273 272 272 272 271 271
312 316 316 315 319 316 308 305 306 303 300 302 304 303 303 304 305 307 306 308 310 309 307 308 312 311 301 296 297 295 294 294 293 292 292 291 290 290 290 291 291 292 292 292 292 291 287 285 284 282 282 281 280 280 279 279 278 277 276 276 275 275 274 273 273 273 272 272 272 271 271 271 271 271 272 272 272 273 273 272 272 272 271 271 271 271
314 316 316 316 318 318 313 312 316 312 303 300 301 302 302 303 304 305 305 307 309 308 307 308 311 310 301 295 296 295 293 293 292 291 291 291 290 290 290 291 291 292 292 291 291 290 288 286 283 281 281 281 280 279 278 278 277 276 276 275 274 274 273 273 272 272 272 271 271 271 270 270 271 271 271 271 272 272 272 272 272 271 271 270 270 270
317 315 313 314 316 315 313 312 315 315 308 304 304 302 300 302 303 304 306 307 308 307 307 307 308 309 305 300 297 294 292 292 292 291 291 290 290 290 290 290 291 291 292 291 290 289 287 285 283 281 281 280 279 279 278 277 276 275 275 274 274 273 272 272 271 271 271 270 270 270 270 270 270 271 271 271 271 271 271 271 271 271 270 269 269 270
317 314 312 312 313 313 314 313 313 313 311 311 311 306 302 301 302 304 306 306 307 307 308 309 307 309 309 305 300 296 293 292 292 291 291 290 290 290 290 290 291 291 291 290 289 287 285 284 283 281 280 279 278 278 277 276 275 275 274 273 273 272 272 271 271 270 270 269 269 269 269 269 270 270 270 270 271 271 270 270 270 269 269 269 269 269
314 314 312 312 312 311 312 312 313 313 311 311 312 311 307 302 301 304 304 305 306 306 308 309 309 309 310 307 304 299 294 293 293 291 290 290 290 290 290 290 290 290 289 288 287 286 284 284 283 281 279 278 278 277 276 275 275 274 273 272 272 271 271 270 270 269 269 268 268 268 268 269 269 270 270 270 270 270 269 269 269 268 268 268 268 268
311 312 311 311 311 311 310 310 311 310 310 310 310 310 310 305 302 303 303 303 304 305 306 307 308 308 308 307 306 302 297 294 293 292 290 290 290 290 289 289 289 289 288 288 286 285 283 283 281 280 278 277 277 276 275 274 274 273 272 272 271 270 270 269 268 268 268 268 268 268 268 268 269 269 269 269 269 269 268 268 268 267 267 267 268 268
308 311 311 311 311 310 310 310 310 310 310 310 310 309 310 309 307 305 303 303 303 304 304 304 305 306 305 305 305 304 300 296 294 292 290 290 290 289 289 289 289 289 288 287 285 284 283 282 280 279 277 277 276 275 274 274 273 272 271 271 270 269 268 268 267 267 267 267 267 267 268 268 269 269 268 268 267 267 267 267 266 266 267 267 267 268
306 309 311 311 311 311 311 310 309 308 307 307 308 308 308 309 310 308 306 305 305 304 304 304 304 304 304 304 303 302 300 297 294 292 290 289 289 289 289 289 289 289 287 286 284 283 282 281 280 278 277 276 275 274 273 273 272 271 270 270 269 268 267 267 267 267 266 266 267 267 268 268 268 267 267 267 266 266 266 266 266 266 266 267 267 267
305 307 310 310 311 311 309 306 305 306 308 309 310 310 308 307 307 308 308 307 306 305 305 306 305 305 304 304 302 300 298 296 294 292 291 290 289 289 289 289 289 288 286 285 284 283 282 280 278 277 276 275 274 273 272 271 271 270 269 268 267 267 266 266 266 266 266 266 266 267 267 267 267 266 266 265 265 265 265 265 265 265 266 266 267 267
304 307 308 309 312 311 305 302 304 307 312 313 310 310 312 309 307 307 307 307 306 305 304 305 305 304 304 303 302 299 297 295 293 292 291 290 289 289 289 289 288 286 285 284 283 282 281 279 277 276 275 274 273 272 271 270 269 269 268 267 266 266 266 265 265 265 265 266 266 266 266 266 265 265 265 264 265 264 264 265 265 265 266 266 267 268
303 305 307 309 311 308 302 302 307 311 313 310 306 306 309 309 307 306 306 305 305 305 304 303 303 303 302 302 301 299 296 294 293 292 291 290 289 289 289 288 286 285 284 283 282 281 279 277 275 274 274 273 272 271 270 269 268 267 266 266 265 265 265 265 265 265 265 266 266 265 265 264 264 264 264 264 264 264 264 265 265 265 266 266 267 268
304 304 306 309 308 306 305 306 310 313 311 308 306 303 303 304 303 303 305 305 304 303 303 303 302 302 302 301 300 298 294 293 292 291 290 289 289 289 288 286 284 284 284 283 281 279 277 275 274 273 272 272 271 269 269 268 267 266 265 265 265 264 264 264 264 265 265 265 265 264 263 263 263 263 263 263 264 264 264 265 265 266 266 267 268 269
306 305 306 308 308 309 310 309 309 310 309 309 309 304 301 302 302 303 306 307 304 303 302 301 302 302 301 301 298 294 291 291 291 290 288 288 288 288 287 285 283 283 282 280 278 276 275 274 273 273 271 271 269 268 267 266 265 265 264 264 264 264 264 264 264 264 264 263 263 263 262 262 262 262 263 263 264 264 265 265 266 267 268 268 269 269
305 307 308 309 310 310 312 311 310 310 310 310 308 303 300 301 302 302 305 304 303 303 302 302 302 301 300 299 294 290 291 293 293 290 288 287 286 285 285 283 282 280 279 277 275 274 274 273 273 272 270 269 268 267 266 265 264 264 263 263 263 263 263 263 263 263 263 262 262 261 261 261 262 262 263 263 264 265 265 266 267 268 268 268 269 270
304 306 307 309 311 310 310 311 311 311 312 308 304 299 297 299 300 302 305 305 303 303 302 301 301 301 300 296 291 290 293 296 295 292 289 286 284 284 283 282 280 278 276 275 274 273 273 272 271 271 269 268 267 266 265 264 264 263 263 263 263 263 263 263 262 262 261 261 261 260 261 261 262 262 263 264 265 265 266 267 267 267 268 268 269 269
304 305 305 307 309 309 309 309 309 310 310 305 299 295 295 298 301 304 309 309 304 302 301 300 300 300 298 293 290 291 294 296 296 292 288 284 283 282 282 280 278 276 274 274 273 273 272 271 271 269 268 267 266 265 264 264 263 262 262 262 262 262 262 262 261 261 260 260 260 260 261 261 262 263 263 264 265 266 266 266 266 267 267 267 268 269
303 304 304 306 307 308 309 309 308 309 307 301 296 294 295 300 304 308 310 308 303 300 298 298 300 298 294 291 290 292 294 295 294 290 285 283 283 281 280 278 276 275 273 273 272 272 271 270 269 268 267 266 265 265 264 263 262 262 262 261 261 262 261 261 260 260 259 259 259 260 261 261 262 263 264 265 265 265 266 266 266 266 266 267 268 269
303 302 303 304 305 306 307 308 307 308 305 299 294 294 297 302 307 307 304 301 302 301 298 296 297 296 293 291 291 292 292 291 289 286 283 283 282 280 278 276 274 274 273 272 271 271 270 269 268 267 267 266 265 264 263 262 261 261 261 261 261 261 260 260 259 259 258 259 259 260 261 262 262 263 264 265 265 265 265 265 265 265 266 266 268 269
305 303 302 303 304 304 305 305 306 308 304 297 294 295 298 303 306 305 300 296 298 299 296 294 295 294 292 292 291 291 288 286 285 284 283 282 281 279 277 275 274 273 272 271 270 270 269 268 267 266 266 265 264 264 263 261 261 261 260 260 260 260 259 259 258 258 258 258 259 260 261 262 263 264 264 264 264 264 264 264 264 265 265 266 267 269
306 305 304 304 303 304 305 304 305 306 300 295 296 298 298 300 303 304 301 297 295 295 294 293 294 293 292 292 290 288 286 284 284 284 283 281 280 277 276 275 274 272 271 270 269 269 268 267 266 265 265 264 264 263 262 261 260 260 260 260 259 259 258 258 257 257 257 258 259 260 261 262 263 264 264 264 264 264 264 264 264 264 265 266 267 268
308 306 308 307 304 304 306 305 305 304 298 295 298 301 299 299 301 302 302 298 294 294 294 293 293 292 291 291 289 286 285 285 284 283 282 281 279 277 276 274 273 271 270 269 268 268 267 266 266 265 264 264 263 263 261 260 260 259 259 259 258 258 257 257 257 257 257 258 259 260 261 262 263 263 263 263 263 263 263 263 264 264 265 266 267 268
308 306 308 309 306 304 306 306 304 302 297 295 297 300 299 298 298 299 300 297 294 294 294 293 293 291 291 291 289 287 286 285 283 283 282 280 278 276 275 273 272 270 269 268 267 267 266 265 265 264 264 263 263 262 261 260 259 259 258 258 258 257 257 257 256 257 257 258 259 260 261 262 263 263 263 263 263 263 263 263 263 264 265 265 266 267
307 304 305 307 307 306 309 309 306 303 299 296 295 297 297 297 296 296 298 297 294 293 293 293 292 291 290 290 290 288 286 285 284 283 281 279 277 275 274 273 271 269 268 267 266 266 265 265 263 263 263 263 262 261 260 260 259 258 258 257 257 257 257 256 256 256 257 258 259 260 261 262 262 262 262 262 262 263 263 263 263 264 265 265 266 267
307 304 303 305 306 307 310 309 304 302 301 297 295 296 296 295 294 294 295 295 294 293 292 292 292 291 290 290 290 289 287 285 284 283 281 279 277 275 273 272 270 268 267 266 266 265 265 264 263 262 261 262 261 260 260 259 259 258 258 257 257 257 256 256 256 256 257 258 259 260 261 262 262 262 262 262 262 262 262 262 263 264 265 265 266 268
306 304 304 305 305 306 308 307 302 301 302 298 296 295 295 294 294 293 293 294 294 293 292 292 291 290 290 290 290 289 288 286 284 283 281 279 277 275 273 271 269 267 266 265 265 265 264 263 262 261 261 261 260 260 259 259 258 258 257 257 256 256 256 256 256 256 257 258 259 260 261 261 261 261 261 261 262 262 261 262 263 264 265 266 267 268
305 306 305 305 306 307 308 307 304 304 306 304 298 295 295 295 294 293 293 293 293 293 292 291 290 290 290 290 290 289 289 287 284 283 281 279 276 274 272 270 267 266 265 265 264 264 263 262 261 261 260 260 260 259 259 259 258 258 257 257 257 256 256 256 256 256 257 258 259 260 261 260 260 261 261 261 261 261 261 261 262 263 265 266 266 268
308 309 307 306 309 310 309 309 306 304 307 308 302 296 294 294 294 293 293 293 293 292 291 291 291 290 289 289 289 289 289 287 284 282 281 278 275 273 271 268 267 265 264 264 263 262 261 261 260 260 260 260 259 259 259 258 258 257 257 257 257 257 256 256 255 256 257 258 258 260 260 260 260 260 260 261 261 260 260 261 261 262 263 264 265 266
Wind_Speed
4 4 2 4 5 6 6 6 6 5 6 4 3 4 6 6 7 6 4 5 3 3 8 8 9 10 7 8 12 10 9 8 8 9 9 8 7 7 8 7 7 7 6 12 14 9 9 9 11 13 15 17 18 19 20 23 27 28 29 30 30 29 28 29 30 32 33 34 37 38 38 40 42 42 42 41 40 40 40 39 38 37 37 39 42 43
5 2 5 8 8 8 6 5 3 2 3 3 3 4 6 5 8 8 5 4 1 3 6 5 6 10 9 9 9 9 10 11 13 14 13 11 9 8 9 9 8 6 5 8 11 7 7 8 10 13 15 16 17 18 19 22 25 26 27 27 26 25 26 28 29 30 31 32 34 36 37 40 42 41 40 41 42 43 42 38 36 37 39 39 41 45
5 3 9 8 5 5 2 1 2 3 3 2 1 1 5 4 5 8 5 2 1 2 5 5 5 8 9 9 8 10 13 12 13 14 13 13 12 9 9 9 8 7 5 6 7 6 6 7 9 11 12 13 15 16 17 20 23 24 25 24 24 24 26 28 28 29 30 33 34 34 35 37 40 41 40 41 42 41 41 40 38 37 37 38 40 43
2 6 8 4 5 6 1 1 3 1 2 3 2 1 5 4 2 5 5 4 3 2 4 7 8 6 7 10 9 10 10 7 8 9 9 10 11 11 11 9 8 8 7 6 6 5 5 5 6 7 9 12 14 14 16 19 22 22 22 22 24 25 26 27 28 29 30 34 35 35 35 35 35 37 39 42 44 43 43 42 40 38 38 38 39 40
6 7 3 5 6 6 2 0 4 3 3 4 5 5 7 6 5 7 4 4 5 4 3 5 8 6 7 12 12 4 3 4 6 8 8 9 9 9 9 8 8 8 8 7 6 5 4 4 3 5 7 11 13 13 14 17 19 20 20 22 24 24 25 26 27 29 31 33 35 36 37 36 35 35 35 36 42 47 47 45 42 42 41 39 39 39
8 5 4 6 3 4 4 3 4 6 3 5 5 9 10 9 8 6 5 5 4 4 4 3 5 6 2 8 10 1 3 6 6 9 12 10 9 9 8 8 8 7 7 6 6 6 5 3 0 3 7 10 10 9 11 14 17 18 19 22 24 24 25 26 27 29 30 31 33 34 34 34 34 36 35 34 38 43 44 45 45 44 42 40 41 40
3 2 4 6 4 4 3 5 5 7 3 3 5 6 7 6 5 4 4 3 2 3 4 2 1 8 2 3 8 5 8 9 7 9 13 11 10 9 8 8 8 7 7 5 5 6 6 4 1 1 5 8 7 7 9 13 16 18 20 23 25 25 25 27 28 28 29 29 31 30 29 29 28 30 36 40 42 41 41 44 45 44 42 40 39 37
3 2 4 4 4 4 4 5 5 7 6 3 4 3 4 3 3 2 0 2 3 2 6 2 4 7 7 6 8 8 10 9 9 11 12 12 12 10 9 9 8 8 7 6 5 5 6 6 5 3 3 5 6 7 9 12 15 18 21 23 25 25 25 26 27 26 26 28 29 29 28 28 27 28 34 40 42 42 43 44 43 42 42 40 38 37
3 4 5 5 4 4 6 6 7 9 4 6 4 3 2 3 4 2 2 4 2 3 7 5 6 4 8 5 2 5 8 10 12 15 15 15 14 11 10 10 9 8 7 7 6 6 8 9 8 5 3 5 6 7 9 12 15 18 21 23 25 26 25 26 26 26 26 26 27 28 29 30 31 31 34 37 39 42 44 44 43 42 41 41 39 38
2 4 7 7 5 6 6 4 6 8 4 3 3 2 2 1 1 1 2 2 2 2 9 7 7 4 7 4 2 2 6 12 14 14 15 15 12 11 11 10 9 7 6 6 6 8 11 10 7 5 4 7 7 7 9 12 15 18 22 24 25 26 26 26 25 25 25 26 26 27 28 30 32 34 36 38 39 40 40 42 43 43 42 42 41 39
3 1 3 4 4 5 4 2 2 4 4 2 4 3 4 4 2 2 1 2 3 3 10 8 11 8 6 3 6 5 6 10 12 11 12 13 11 11 12 10 9 7 7 6 6 9 12 10 7 5 6 7 8 8 9 12 16 21 24 24 25 25 25 25 25 25 25 26 25 26 28 29 31 33 35 37 39 39 39 41 43 44 43 42 41 41
4 1 2 2 2 4 6 4 2 3 2 3 4 3 4 5 3 4 4 3 1 6 7 5 8 8 7 6 6 8 8 7 10 12 16 18 15 14 12 9 8 8 7 7 6 7 8 8 7 7 8 9 8 8 10 14 20 24 25 24 24 25 25 25 25 25 26 26 26 27 28 28 29 30 32 34 37 39 38 40 43 43 43 42 41 40
3 4 3 2 1 4 6 3 2 5 5 4 3 3 3 4 3 3 3 0 3 7 4 1 4 5 10 10 8 13 13 8 10 13 16 19 17 15 12 9 8 7 7 7 6 6 6 7 8 9 9 9 9 8 11 17 22 24 24 24 24 26 26 26 26 26 26 26 26 27 27 28 29 30 31 32 34 37 38 39 41 41 42 43 42 40
3 5 1 1 2 3 7 5 2 2 1 4 4 3 2 1 3 4 4 3 5 6 3 2 2 3 9 8 9 14 13 9 11 11 12 15 17 16 12 9 8 7 7 7 6 6 5 7 10 10 10 10 9 8 14 20 22 23 23 24 25 27 28 27 27 27 27 27 27 27 27 28 29 31 31 32 34 37 39 38 39 40 41 42 42 41
2 5 3 5 2 3 8 6 5 5 4 4 4 4 4 3 2 4 3 4 6 6 3 0 1 4 5 3 5 9 7 5 8 7 7 10 12 12 9 8 8 8 7 6 6 6 6 9 11 10 10 10 7 9 17 21 22 23 24 24 26 29 30 29 28 28 28 28 28 28 27 28 29 30 31 33 34 36 38 39 38 40 41 42 43 42
4 6 5 2 1 4 6 4 4 6 3 2 3 4 2 4 4 3 3 4 3 5 4 3 4 6 5 3 2 1 2 2 4 5 9 10 10 9 8 8 8 8 7 6 6 6 7 11 11 9 10 8 5 12 17 21 22 23 24 25 27 29 29 29 29 29 30 30 30 30 30 30 30 31 33 35 37 38 39 39 39 41 42 43 43 42
2 5 3 2 2 2 3 3 2 2 2 2 2 3 4 3 4 2 3 0 2 3 5 3 5 6 2 4 1 4 2 3 4 6 10 11 11 10 9 8 8 8 7 7 6 6 7 10 11 9 8 3 7 13 16 19 22 23 24 25 27 29 30 29 29 29 30 30 32 33 32 32 33 34 36 37 39 41 41 41 41 41 43 42 42 41
2 4 3 2 1 2 1 1 2 2 3 5 3 5 3 2 3 2 2 2 1 4 5 2 8 10 3 3 2 4 4 6 6 7 9 9 9 10 9 8 8 8 7 7 7 6 8 11 11 8 3 2 8 12 15 18 20 22 24 25 26 29 31 31 30 30 30 30 31 33 34 35 36 37 38 39 40 41 42 43 43 42 42 42 41 40
2 3 5 1 1 2 2 2 1 3 2 5 3 3 2 2 2 2 2 2 1 4 7 3 6 11 7 5 3 6 10 11 10 8 9 11 12 10 9 9 9 8 7 6 7 5 7 10 9 4 0 4 9 13 15 17 20 22 23 24 25 28 30 31 31 31 32 32 32 33 34 36 39 40 40 41 41 42 43 44 44 43 42 42 41 39
3 1 4 1 1 2 2 1 3 2 1 2 1 2 1 2 3 2 2 2 2 4 8 5 6 8 6 6 8 13 15 15 13 10 12 14 14 11 9 9 9 8 7 6 7 6 7 9 6 1 0 5 10 13 16 17 19 21 23 24 25 28 30 30 30 30 32 34 34 35 36 38 40 41 42 42 42 43 44 45 44 42 42 42 42 41
3 2 3 2 3 1 2 5 7 8 5 3 2 2 2 2 1 2 2 2 3 4 6 5 9 10 3 4 8 13 15 15 15 14 14 14 12 10 10 10 9 8 7 7 7 6 6 6 4 2 3 7 11 13 15 16 18 21 22 24 25 28 30 30 31 31 32 33 34 36 37 39 41 42 42 43 43 43 44 44 42 41 42 43 42 41
3 3 3 1 2 4 5 5 6 8 8 7 6 7 7 6 2 3 5 3 3 5 5 2 11 13 3 3 5 9 11 13 14 16 15 12 12 12 10 10 9 8 8 7 7 6 5 5 4 4 5 9 11 13 14 16 18 20 23 24 25 27 29 30 31 32 33 34 35 36 38 40 41 42 42 43 42 42 42 42 40 40 41 42 41 40
3 3 3 4 5 5 4 2 0 2 3 3 5 6 6 6 6 6 9 3 2 5 3 1 11 14 3 4 5 6 9 11 13 16 13 10 11 11 10 9 9 8 7 7 6 5 5 6 6 5 7 9 11 12 13 15 17 20 23 25 25 27 28 30 31 32 33 34 35 37 38 40 41 41 43 43 41 42 42 40 39 38 39 40 40 39
2 2 3 5 4 1 2 4 4 4 3 2 5 5 7 9 10 9 6 1 1 5 3 2 12 13 3 2 2 2 5 8 11 14 13 10 9 9 10 9 8 7 7 6 5 4 4 6 5 6 9 10 10 11 13 16 18 20 22 24 25 27 28 30 31 32 33 34 36 38 38 40 41 41 42 41 40 41 40 39 37 36 38 39 38 38
3 2 3 2 5 4 3 3 4 3 0 4 5 5 9 13 9 3 1 2 4 7 7 5 14 12 2 3 1 2 4 7 9 10 10 11 9 8 9 8 7 7 6 6 5 4 4 4 5 7 10 9 9 11 13 16 18 20 22 24 25 27 29 30 30 32 33 35 37 38 38 40 41 41 41 40 40 41 40 38 37 35 36 37 37 36
5 4 5 4 5 8 8 5 3 3 3 3 4 7 11 14 13 6 2 5 9 7 8 10 15 13 5 1 1 3 5 7 8 7 8 9 9 9 9 8 7 7 6 7 6 5 5 4 5 8 10 8 8 11 14 16 18 20 22 23 25 27 30 31 31 31 33 35 36 38 39 40 40 40 40 39 39 41 39 37 37 37 35 33 35 36
3 2 7 9 10 12 14 12 3 5 3 5 7 11 13 14 15 10 6 10 10 4 8 17 19 19 18 8 4 7 8 9 9 9 8 8 9 10 9 8 7 7 6 6 5 5 5 4 6 9 8 6 8 11 14 16 19 20 22 25 26 26 27 30 31 33 34 35 36 37 39 39 38 39 40 38 38 39 36 34 35 38 37 33 33 35
4 5 11 12 15 18 19 16 5 5 8 12 12 13 13 13 14 14 15 17 8 2 13 24 20 21 26 16 9 10 11 10 10 11 11 11 11 10 8 8 8 7 6 5 5 6 6 6 7 7 5 5 8 11 14 17 19 20 22 24 26 26 27 28 30 33 34 35 35 36 38 38 37 38 39 38 37 36 35 35 34 35 36 35 33 34
4 8 11 10 15 21 20 17 9 7 11 13 18 20 13 12 17 21 23 22 13 10 19 26 22 23 25 18 12 13 13 13 13 13 12 10 10 10 9 9 9 8 7 7 7 7 7 7 6 4 3 5 7 11 15 18 19 21 22 24 25 26 27 29 31 33 34 33 33 36 39 38 35 37 39 37 36 35 34 37 38 36 36 35 33 34
4 8 8 8 12 18 18 15 11 12 13 14 24 27 16 14 20 22 22 23 21 21 25 28 28 29 26 19 14 11 12 13 11 9 9 10 11 12 11 11 10 9 8 9 8 8 7 6 5 3 2 5 8 11 14 17 19 21 22 24 25 26 28 31 32 31 30 30 32 37 39 36 33 37 38 35 35 36 35 36 38 37 36 34 33 33
4 5 3 4 7 15 17 12 9 11 11 16 29 29 17 15 20 20 21 22 20 22 28 29 26 26 25 21 14 8 8 9 8 9 11 11 13 13 12 11 10 9 9 9 8 7 6 5 4 2 2 5 9 12 14 16 19 20 22 23 25 29 32 31 29 28 27 30 35 38 37 34 35 38 38 36 37 37 37 37 37 37 37 35 33 34
5 3 1 4 4 12 9 2 2 3 5 15 31 31 19 16 19 19 19 20 20 22 26 22 17 21 21 12 6 6 9 10 11 13 13 11 13 14 13 12 10 9 10 9 7 6 5 4 3 1 3 6 9 12 14 16 18 20 21 22 25 31 33 30 27 28 31 34 37 39 36 35 36 39 39 38 38 39 41 41 39 38 38 37 35 34
6 5 2 4 6 10 2 5 5 3 3 14 21 19 17 20 22 20 17 21 24 21 17 14 16 21 16 4 3 7 9 11 12 13 13 12 12 13 12 11 10 9 9 8 6 6 5 4 3 3 4 6 9 11 14 16 17 17 19 22 27 30 31 29 28 30 33 35 36 37 37 37 38 39 40 39 40 43 43 42 41 39 37 38 37 34
6 7 4 5 5 5 1 5 5 2 8 12 6 4 11 17 21 21 20 24 25 18 15 17 21 21 13 8 10 9 9 12 12 12 13 13 13 12 11 10 10 9 8 7 6 5 4 4 4 4 4 6 9 12 14 14 14 16 21 25 27 28 28 29 30 30 32 34 35 36 37 37 38 38 39 41 43 43 40 39 42 43 40 38 36 32
9 8 5 3 3 3 2 5 2 8 11 7 0 4 9 12 15 18 21 26 24 17 17 21 24 24 18 15 13 9 9 10 8 8 10 12 13 13 11 9 9 9 8 7 6 5 4 5 5 4 4 6 9 12 12 12 14 19 24 25 26 26 26 28 29 30 31 33 35 36 37 38 38 38 39 43 44 41 41 43 45 46 46 42 36 31
10 8 4 3 3 1 2 4 9 11 12 13 7 4 4 3 5 7 14 23 21 16 17 20 23 24 22 17 10 4 5 4 4 4 6 9 10 11 11 10 10 10 9 7 6 6 6 7 6 4 4 7 10 12 12 13 17 22 24 24 24 25 26 27 28 29 31 33 35 38 38 36 37 39 41 44 44 41 45 52 52 49 47 42 35 31
9 8 5 4 5 5 6 10 10 8 17 22 15 5 4 5 7 7 9 19 14 12 15 18 20 23 18 9 2 6 7 6 3 2 5 6 8 9 10 11 10 9 8 8 9 9 10 9 6 4 5 7 9 10 12 15 20 22 23 23 23 24 26 26 27 29 31 33 36 38 38 36 36 40 43 44 43 43 47 51 50 46 41 35 31 29
9 9 8 7 7 7 8 10 7 6 14 16 7 1 3 5 7 8 3 13 11 9 14 16 18 20 12 4 8 9 8 5 3 6 7 6 6 8 8 8 9 9 9 11 12 12 12 8 5 4 5 7 9 11 13 17 20 21 22 22 23 25 26 25 27 29 32 35 37 39 39 38 37 40 42 43 43 46 48 46 41 37 35 33 32 30
9 7 6 6 7 6 7 9 7 9 14 9 2 1 3 7 8 8 2 10 9 10 13 14 15 14 8 10 11 10 8 5 8 8 8 9 8 9 9 7 7 9 11 13 13 13 11 7 4 4 6 9 10 12 15 18 19 20 21 22 23 24 24 25 28 30 32 36 38 39 39 39 39 39 40 42 43 43 43 39 36 35 34 34 34 31
7 5 3 6 10 10 10 9 6 7 11 5 5 3 4 8 10 8 2 9 6 8 10 11 12 10 9 12 10 9 9 10 9 6 11 12 9 9 9 8 9 10 11 13 14 13 10 6 5 6 8 10 10 12 15 17 18 18 19 21 21 22 23 26 29 31 33 36 37 38 39 38 38 39 39 41 42 41 40 37 36 36 35 35 34 32
3 4 4 7 12 12 12 9 6 7 8 5 8 8 7 7 8 3 8 8 6 8 7 8 10 9 10 12 10 9 8 5 3 9 14 14 10 8 8 10 13 14 14 15 14 11 9 7 6 7 8 8 9 12 14 16 16 17 18 19 20 21 24 28 30 31 33 36 36 37 38 38 37 38 39 39 39 40 39 38 37 36 35 35 35 32
3 3 4 7 8 7 8 7 5 9 6 10 13 11 9 6 2 7 7 3 8 9 7 7 9 9 12 13 11 7 3 4 9 14 15 14 12 9 7 9 11 12 14 15 13 10 9 8 6 7 7 8 9 12 14 15 15 16 17 18 20 23 26 29 30 32 33 35 35 36 38 38 37 37 37 37 38 39 39 38 37 36 35 33 32 29
7 5 4 7 6 3 4 5 4 8 6 17 17 8 7 9 8 6 3 3 5 8 7 7 8 9 11 11 8 6 6 8 11 13 14 13 11 10 9 9 9 9 12 15 13 9 9 8 6 5 6 7 9 11 12 13 15 16 17 18 22 25 27 28 31 33 33 34 35 35 36 37 37 36 36 37 38 37 37 38 36 35 33 31 29 27
7 7 5 7 6 5 6 10 8 5 8 20 18 10 14 16 7 5 7 4 3 5 6 6 7 8 10 10 9 8 9 10 11 12 13 11 10 11 9 8 8 9 12 15 13 9 8 7 5 3 5 6 8 10 11 12 15 16 17 20 23 25 27 28 31 32 32 33 34 34 35 36 35 35 35 37 38 36 35 37 36 33 31 29 26 25
12 12 6 4 7 8 8 10 7 3 8 18 15 7 11 13 5 5 8 6 4 5 6 6 7 8 9 10 11 10 9 10 11 12 12 11 11 10 8 7 10 12 14 15 13 10 8 6 4 3 4 6 8 10 11 12 14 16 18 21 23 25 27 30 32 32 32 33 33 33 34 34 34 33 33 35 37 35 34 35 34 32 29 27 25 24
8 7 2 1 5 8 11 10 7 4 7 16 15 5 4 8 6 5 7 6 6 7 6 7 8 9 10 11 11 10 9 11 12 11 10 11 10 8 7 8 10 13 15 15 13 10 8 6 4 3 4 7 8 9 11 12 13 14 18 21 23 25 27 29 30 30 30 31 32 32 32 32 32 33 33 33 34 35 35 34 31 30 28 26 25 23
3 5 4 4 5 6 11 13 12 13 13 15 15 11 6 6 7 7 7 6 7 8 8 8 9 10 11 12 13 11 10 12 13 11 9 10 10 9 9 9 9 12 15 15 13 11 9 6 4 3 4 6 7 9 10 12 13 14 17 20 22 24 26 27 27 28 29 30 30 31 30 30 31 33 33 33 32 34 37 36 33 29 27 25 24 22
4 7 7 9 10 10 13 10 4 7 13 14 13 13 10 8 8 7 6 6 8 8 8 7 9 11 11 11 12 13 12 12 13 12 10 9 9 9 10 9 9 11 14 15 14 12 9 7 5 3 3 5 6 8 10 12 13 15 17 19 21 23 25 26 25 26 27 27 28 28 29 29 30 31 32 33 31 31 33 35 34 31 27 25 25 25
6 7 7 9 11 13 18 13 2 2 8 11 13 15 13 11 11 9 6 6 8 9 7 7 8 10 12 12 11 13 13 12 12 13 12 10 9 9 9 10 12 14 16 16 14 11 9 8 6 4 3 3 4 7 9 11 12 14 16 18 20 21 23 25 25 24 25 25 26 27 28 29 30 31 31 32 31 31 32 31 30 29 28 29 30 29
8 9 6 5 8 12 18 18 11 6 10 13 16 19 16 11 12 12 9 8 10 11 10 10 8 7 10 11 11 13 13 11 10 12 12 10 10 10 10 12 14 15 16 17 15 11 9 8 7 6 4 2 3 6 8 10 12 14 16 17 19 20 21 23 23 23 23 24 25 26 27 28 29 30 31 31 31 33 35 35 32 28 27 29 33 35
14 15 12 11 14 18 21 19 13 12 15 14 11 15 15 12 13 15 14 13 13 13 13 13 11 8 7 7 9 12 13 12 11 12 11 9 10 12 14 16 16 16 16 17 16 12 10 9 7 6 5 3 3 5 7 9 11 14 15 16 18 18 19 20 21 21 22 23 24 25 26 27 27 28 29 30 30 30 32 36 39 40 37 33 33 37
Wind_Direction
85 54 331 253 245 225 212 189 188 202 195 214 237 238 244 252 272 262 253 267 179 189 254 235 236 254 246 210 201 191 176 178 179 178 186 186 185 186 186 194 189 194 200 182 171 137 99 76 46 36 30 21 13 10 12 12 11 8 4 359 355 351 348 348 348 348 346 344 341 338 336 332 329 328 326 325 325 324 323 322 322 321 318 316 315 314
62 42 260 241 229 206 195 195 201 214 196 217 225 261 279 242 260 275 267 278 151 176 266 262 246 255 252 231 210 182 178 190 188 185 189 186 188 191 188 194 195 201 200 180 180 156 105 70 43 35 28 19 11 10 13 12 8 4 1 356 351 347 346 346 347 345 343 342 341 337 332 329 326 325 325 323 324 325 324 323 322 320 318 315 314 315
16 277 257 251 205 158 127 161 188 238 224 231 195 278 289 258 273 292 297 327 53 193 273 290 266 256 259 249 219 194 196 202 198 191 187 181 183 190 189 193 195 198 200 191 191 171 118 68 43 33 26 18 10 11 12 8 5 2 358 352 348 346 345 344 343 343 340 338 339 336 331 328 325 324 324 323 323 325 324 323 321 320 318 315 313 313
321 255 245 225 141 139 358 32 138 256 275 230 191 208 271 273 296 289 311 344 324 256 259 279 273 254 258 259 237 210 203 195 193 191 188 187 184 187 191 191 187 186 194 197 199 185 127 78 43 32 23 14 10 11 10 5 2 359 354 349 346 344 342 341 341 339 337 336 337 335 330 328 324 322 324 325 325 326 324 322 321 319 318 315 312 311
250 255 192 111 114 148 186 98 139 184 281 261 213 208 248 266 244 243 291 337 319 303 278 288 286 258 229 244 246 219 165 173 175 174 188 205 199 191 192 193 190 187 188 189 200 201 149 114 41 27 17 9 11 10 5 1 358 355 350 346 343 341 340 340 339 338 337 337 336 335 332 331 328 325 325 326 326 325 324 322 319 317 317 316 312 309
260 266 123 118 116 139 172 232 184 176 241 295 240 216 233 249 250 263 333 358 342 320 319 2 304 276 225 237 248 191 157 199 186 183 193 202 205 200 195 195 198 197 194 188 186 183 163 152 13 14 8 4 6 1 356 354 353 351 347 344 341 341 341 339 339 337 336 336 335 335 333 331 329 326 324 324 323 322 320 318 316 315 315 315 313 309
267 340 80 130 156 146 179 254 228 169 154 290 257 208 211 221 238 277 349 359 280 265 293 59 259 275 291 231 237 198 195 208 193 199 200 198 204 200 193 192 197 199 196 196 187 171 166 172 216 332 357 355 347 342 344 346 349 348 345 344 342 341 340 338 337 336 333 333 332 331 328 324 322 318 317 320 320 318 316 314 313 313 313 313 312 309
172 68 50 107 137 161 199 257 230 160 138 243 245 128 127 175 222 245 141 252 242 272 289 217 167 269 276 250 235 190 193 214 206 209 209 204 206 198 194 196 195 196 187 185 191 181 181 193 209 232 314 327 322 326 334 342 345 345 344 343 342 340 338 336 335 332 330 329 328 327 323 319 316 313 312 316 317 316 315 314 312 312 311 311 310 307
171 171 194 157 133 188 213 229 194 156 160 243 216 128 118 185 213 216 198 252 297 28 291 236 150 255 267 257 272 164 194 225 217 212 211 208 205 194 196 201 197 195 185 178 180 185 196 202 206 214 272 303 307 314 326 337 340 342 344 343 340 337 335 334 332 329 326 326 325 323 321 317 315 314 313 315 315 315 316 314 312 312 310 309 308 305
220 202 193 156 158 213 219 221 181 161 193 231 153 106 19 71 163 182 199 256 48 64 266 240 158 217 265 231 133 132 214 231 222 214 213 209 204 195 196 200 198 191 182 182 180 187 197 198 200 219 274 298 301 307 320 330 336 342 344 343 338 334 332 331 330 327 324 324 323 321 319 316 314 315 316 316 315 315 315 313 311 312 311 309 307 305
299 287 175 148 182 197 163 130 144 154 174 127 77 30 355 10 35 45 79 87 69 246 256 230 180 195 271 243 180 187 219 219 210 207 212 210 202 200 200 195 191 182 178 186 187 196 201 198 201 234 276 290 295 300 313 326 338 344 344 340 334 330 329 328 327 325 322 321 320 318 317 313 312 314 315 316 315 314 314 312 311 311 310 307 306 305
337 344 231 249 185 131 105 90 26 16 74 94 67 40 351 330 10 24 359 54 105 251 260 233 187 189 240 246 205 222 243 219 197 196 202 203 199 198 198 191 186 180 177 181 190 204 207 206 217 243 269 280 284 290 310 333 344 345 341 336 329 325 325 325 324 323 321 320 318 317 315 311 310 312 313 312 311 312 312 310 310 309 308 307 306 305
305 231 250 315 219 136 112 92 2 355 32 81 84 61 11 330 352 349 301 240 218 248 255 161 157 201 241 248 236 238 245 227 204 204 200 196 191 191 191 188 183 175 176 181 189 204 202 207 224 242 262 271 270 286 325 344 346 341 335 331 325 321 323 323 322 322 320 318 316 316 314 311 311 311 310 308 306 307 308 307 307 307 307 306 306 304
292 294 284 175 274 173 145 147 201 282 104 138 151 142 136 34 332 290 263 273 276 267 258 118 126 250 261 260 241 241 245 222 209 214 203 188 183 184 183 179 177 174 180 186 190 200 198 205 222 240 259 262 264 306 343 347 341 335 331 328 323 320 322 322 322 321 319 315 314 315 313 311 311 310 308 306 304 305 305 305 304 304 304 304 303 302
224 298 232 180 231 179 172 181 166 142 145 178 159 137 155 160 220 259 236 258 290 294 275 154 162 227 237 257 249 257 268 222 206 203 174 170 172 171 171 170 175 181 187 192 193 197 200 207 220 241 256 254 273 339 349 342 336 332 328 325 322 320 321 321 321 319 316 314 314 313 312 311 311 309 307 305 303 303 304 303 302 302 302 301 300 299
185 257 252 228 287 167 177 195 138 114 117 217 128 117 187 179 183 231 214 211 289 312 276 217 222 225 217 251 258 287 307 172 167 152 144 157 163 160 171 178 178 185 191 194 195 200 207 212 222 241 249 252 323 352 345 336 333 329 325 323 321 319 319 319 319 318 316 314 314 314 314 313 313 310 308 306 304 304 304 303 301 300 300 300 299 299
200 267 275 17 338 169 168 189 141 127 175 170 130 184 224 173 145 211 268 358 65 286 267 214 252 274 293 274 239 102 129 163 151 161 158 162 166 167 179 182 181 188 191 193 194 199 209 213 225 242 244 269 353 347 335 331 329 326 323 321 319 318 318 318 317 316 315 314 314 315 316 315 314 313 310 307 306 306 305 304 301 300 300 300 300 299
202 271 258 143 207 241 187 154 39 15 134 131 180 219 205 132 110 115 271 324 57 259 268 213 254 270 268 277 301 110 181 202 189 182 168 167 174 180 185 183 185 191 190 194 197 202 208 213 228 240 239 349 349 333 325 326 326 324 322 319 318 317 317 317 317 316 315 315 315 315 316 316 316 314 311 309 308 307 307 305 303 301 300 300 300 299
136 265 275 143 189 291 16 70 343 332 91 129 209 236 127 174 227 118 166 256 218 259 271 247 270 270 235 221 228 191 201 204 196 186 179 186 190 188 186 185 189 192 189 195 201 210 213 218 232 238 165 342 328 321 322 325 325 322 320 318 317 316 316 317 317 317 317 317 316 315 315 316 316 315 313 311 310 309 307 306 305 302 300 301 301 299
118 213 276 335 295 302 31 137 196 228 10 72 339 318 58 183 210 179 168 203 187 254 275 285 304 282 225 190 200 200 201 198 188 186 194 199 195 187 184 185 190 191 189 196 202 210 217 223 236 220 343 313 314 316 322 325 323 320 319 319 318 317 317 318 318 318 318 318 317 316 316 316 316 315 313 312 311 310 308 306 304 302 300 301 302 300
113 199 245 329 330 248 183 205 191 182 177 155 172 227 229 190 186 264 233 167 174 243 265 278 281 269 214 167 196 194 200 198 183 186 201 202 193 187 185 184 186 188 190 199 204 208 220 229 229 205 269 299 308 314 321 323 320 319 318 319 320 319 319 319 319 319 318 317 316 315 315 316 315 314 314 313 312 309 308 307 304 302 302 301 301 301
162 195 207 188 241 214 216 222 194 188 182 175 184 194 201 196 171 267 258 207 173 231 227 237 270 265 222 153 200 186 195 198 183 189 201 195 188 188 188 186 183 186 192 201 205 204 216 223 211 222 272 296 303 312 320 321 319 319 320 321 321 320 319 319 320 320 318 317 316 315 315 315 315 315 314 314 312 310 309 309 305 303 303 303 302 302
148 137 201 228 227 216 240 301 40 208 195 196 211 192 187 188 173 214 245 226 164 230 218 196 269 268 237 150 196 193 196 189 182 194 198 187 188 186 184 186 183 186 192 193 197 202 209 209 207 237 277 291 299 310 317 319 320 321 321 322 322 320 320 320 320 319 318 316 315 315 316 315 315 316 315 314 312 310 310 308 306 305 304 303 304 303
131 129 208 263 285 330 357 355 7 24 60 234 238 191 187 206 201 211 230 133 176 225 182 200 258 265 279 143 190 180 188 181 184 197 191 180 187 183 179 185 183 186 189 187 198 209 203 200 209 248 271 282 296 310 318 321 324 323 321 322 321 320 320 321 320 319 319 317 316 316 316 316 316 316 315 314 312 311 311 308 305 306 306 304 303 304
193 177 172 266 306 309 323 353 342 331 206 225 234 197 206 220 217 227 34 94 247 222 171 216 257 258 292 18 2 104 149 181 192 194 184 177 180 180 179 181 180 180 180 188 204 208 197 199 219 247 262 277 299 316 324 325 324 322 322 321 322 321 321 321 321 320 319 317 316 317 317 316 316 316 315 314 313 312 311 310 307 305 309 309 303 302
184 181 170 184 241 259 263 263 240 223 205 208 225 211 215 216 207 208 220 220 240 226 184 225 254 258 267 33 286 223 177 183 194 184 184 184 177 177 179 180 179 175 179 194 199 195 195 207 230 244 257 280 311 324 325 324 323 322 323 322 323 323 321 322 322 321 319 318 317 317 317 317 317 317 316 314 314 315 313 312 311 307 308 312 308 301
142 196 204 202 216 234 250 255 197 131 185 222 221 213 209 210 206 205 226 233 233 227 234 240 245 258 264 249 214 229 201 188 193 183 188 191 179 179 180 176 176 175 184 192 186 184 197 216 232 241 258 297 325 328 325 323 324 325 325 323 323 323 321 323 323 321 319 318 316 314 315 317 316 316 316 314 314 315 313 311 311 309 307 308 308 303
108 235 223 212 227 237 247 254 217 154 239 252 252 237 210 197 200 205 222 232 217 161 252 251 244 252 261 252 214 216 209 197 198 192 191 190 181 180 175 168 175 181 186 183 176 187 206 223 230 238 272 318 328 327 328 327 327 328 325 322 321 323 324 324 322 319 318 316 314 312 314 317 315 314 315 315 313 312 313 312 310 310 310 307 303 300
139 242 229 202 233 245 249 256 248 237 255 263 265 258 225 188 199 212 226 232 219 214 246 257 256 254 260 256 226 212 205 202 204 198 191 181 172 171 168 170 178 183 185 187 191 200 211 222 227 236 282 321 332 333 333 330 328 328 324 321 322 324 325 324 322 318 316 313 311 312 315 315 313 316 318 317 316 312 312 317 315 310 308 306 301 297
161 247 236 201 236 252 252 254 250 252 261 265 263 259 239 210 214 220 232 236 230 233 246 257 263 264 264 261 247 223 204 203 201 187 176 170 170 173 174 177 182 186 189 191 199 207 211 216 220 230 295 335 342 340 336 330 327 326 322 322 323 324 325 325 321 317 313 310 310 313 316 314 312 317 319 317 317 314 310 314 316 312 306 301 300 299
207 240 236 181 237 261 259 250 236 242 251 259 263 260 246 233 235 232 236 240 237 240 246 251 260 266 267 265 258 233 195 186 180 175 178 179 178 177 177 180 183 186 190 195 200 206 210 210 208 217 349 354 346 340 335 328 324 323 322 322 323 323 326 325 320 315 311 310 313 315 315 315 315 318 319 317 317 317 314 312 313 313 309 301 297 297
207 226 47 108 229 261 264 234 206 250 267 263 265 264 247 232 238 234 231 234 232 234 245 251 254 258 263 269 255 209 181 175 182 183 183 184 181 178 178 183 185 186 189 194 199 200 203 203 184 113 18 358 345 337 333 327 325 323 322 322 323 324 327 325 318 316 314 314 317 318 317 317 319 320 319 319 318 317 317 315 312 309 307 304 300 296
181 196 152 140 227 260 272 98 110 85 300 266 263 257 233 223 231 235 235 237 232 228 237 244 242 248 258 270 225 212 186 184 193 187 180 182 182 180 181 181 181 185 186 187 193 195 195 186 148 81 27 356 341 332 330 327 323 320 320 322 325 327 326 323 319 318 318 318 320 321 321 321 322 321 319 319 319 318 316 315 313 307 301 300 301 297
181 196 193 172 217 253 162 102 105 157 253 264 266 198 196 204 216 226 233 239 234 224 224 237 248 256 260 250 239 222 194 197 200 189 180 176 175 180 183 179 176 179 182 184 189 192 180 154 113 67 24 352 337 329 328 327 321 320 323 327 328 326 323 321 320 320 319 321 322 322 322 323 322 320 318 317 319 317 314 312 311 309 303 298 295 292
183 195 199 186 208 237 120 97 177 230 241 259 27 156 192 197 204 216 232 243 240 229 226 238 250 256 253 250 246 218 199 206 193 180 180 174 172 172 168 172 174 172 178 185 184 180 161 132 105 62 17 348 337 332 332 330 327 327 329 330 328 324 322 321 321 321 321 322 323 323 324 324 322 320 319 319 318 315 312 313 312 310 308 303 294 289
179 183 193 178 171 207 140 174 223 252 287 296 277 186 164 182 184 205 249 257 247 228 226 235 244 251 251 252 251 191 163 160 117 150 182 172 168 162 158 170 175 172 180 183 171 161 142 121 103 65 10 346 340 340 339 334 332 332 331 330 326 322 323 324 323 323 325 324 324 325 325 325 323 321 320 321 320 316 314 316 315 313 312 307 295 291
178 177 201 205 195 214 223 226 240 291 304 290 272 212 162 190 178 171 252 269 255 211 216 231 240 249 251 246 186 111 111 103 95 205 206 176 163 159 160 166 166 167 169 154 142 138 127 112 93 54 4 350 349 348 343 337 337 336 331 328 327 326 326 327 325 325 326 325 324 325 325 324 322 321 321 321 320 318 317 317 315 314 315 309 298 293
195 194 204 207 209 216 229 244 255 268 269 270 266 205 182 178 161 142 216 278 268 199 203 221 232 242 243 155 129 134 124 122 190 214 200 182 166 150 146 149 151 151 145 138 136 127 114 102 80 47 6 2 3 353 345 341 341 339 332 328 329 329 328 328 327 327 327 325 324 324 324 324 323 321 321 321 320 319 319 319 317 316 316 312 306 298
214 220 215 217 224 213 219 237 236 239 253 254 160 139 142 130 125 104 70 284 260 194 194 207 220 231 206 149 152 151 139 184 229 214 177 170 168 149 140 138 136 136 137 140 138 124 111 104 80 47 20 15 8 350 345 345 343 339 333 328 328 328 328 328 328 328 326 323 323 324 324 325 325 324 322 321 321 321 321 320 319 318 316 313 308 302
211 217 195 218 229 219 219 235 236 247 255 231 132 146 160 133 113 92 323 274 231 175 189 196 208 216 174 153 161 161 174 213 231 189 156 157 156 146 146 147 144 142 139 133 127 118 113 104 72 46 27 17 1 348 347 347 345 339 329 326 327 327 328 328 327 326 324 323 323 324 325 326 326 325 324 323 322 323 323 321 319 320 319 315 309 304
206 201 193 218 229 225 225 234 248 260 249 174 142 165 163 118 87 116 247 245 172 172 198 184 191 193 158 156 174 184 200 219 151 136 145 148 146 145 144 142 141 143 139 130 124 120 115 97 65 47 31 11 353 349 351 350 344 335 327 326 328 327 328 327 326 325 324 324 325 326 327 328 327 326 326 325 324 324 324 324 323 321 321 317 310 305
180 179 215 225 224 228 231 232 258 272 242 149 151 170 158 136 204 231 232 170 145 177 194 179 185 176 161 174 187 183 172 115 121 137 146 149 150 144 133 130 133 135 131 125 121 119 115 98 69 48 27 6 354 353 356 352 341 331 327 328 328 328 329 327 326 327 326 326 328 328 329 330 330 330 329 328 328 327 326 327 327 325 324 321 313 309
171 159 204 215 198 186 220 208 236 268 212 145 142 159 181 197 220 212 153 103 161 177 171 175 185 171 170 182 176 143 130 126 134 142 145 150 149 140 140 144 139 134 128 124 123 122 115 101 79 52 19 5 360 360 2 353 338 331 329 328 329 331 330 329 329 329 329 329 330 330 331 332 333 334 334 332 332 330 329 330 330 329 329 326 320 319
174 175 199 210 180 147 188 207 214 235 169 152 152 176 202 206 201 139 147 163 179 171 164 172 182 177 177 171 149 140 142 138 143 147 146 150 151 145 150 150 134 130 129 128 130 128 114 104 93 56 20 13 7 5 7 353 336 331 330 330 333 334 332 332 333 332 332 332 332 332 333 334 335 337 338 337 335 334 334 333 332 331 332 329 326 327
198 194 192 197 186 184 206 215 204 143 159 179 186 192 197 201 189 133 159 163 160 181 177 166 174 179 172 157 145 148 152 149 154 157 153 156 157 151 148 142 133 132 130 128 130 129 119 112 104 61 29 25 16 9 6 354 339 333 330 333 337 336 334 335 336 335 334 334 333 334 335 335 336 339 342 342 340 338 338 337 334 333 334 332 330 330
216 196 159 123 194 223 251 248 218 177 182 200 211 218 175 190 189 162 163 163 166 180 173 164 173 171 160 154 150 153 161 158 157 161 159 154 153 148 139 131 128 129 131 131 133 135 134 126 105 65 35 29 22 11 0 353 346 338 334 336 339 339 338 338 337 336 335 334 334 336 337 338 339 342 344 347 346 342 341 341 336 333 334 334 333 330
232 178 183 211 183 204 250 246 220 212 209 201 210 224 216 199 195 177 172 175 172 176 177 171 167 161 158 160 157 157 165 161 156 159 160 151 151 152 145 135 129 133 137 139 142 146 143 131 109 75 40 27 19 7 355 352 352 346 341 341 343 342 342 342 339 336 335 335 337 338 340 342 342 342 345 348 349 346 345 344 340 336 334 333 332 328
189 155 184 223 211 211 239 241 198 219 225 207 205 221 216 200 197 190 185 180 166 167 173 164 155 156 161 166 163 157 160 164 162 160 159 157 157 153 146 141 135 135 139 143 147 151 146 134 127 109 64 31 13 0 354 354 355 352 349 348 348 348 346 344 341 338 336 337 340 341 343 344 343 344 345 345 347 347 346 344 341 338 337 337 335 333
139 155 178 204 210 233 250 245 135 12 262 229 214 220 213 193 187 188 183 171 159 156 159 157 160 165 165 168 165 154 157 171 171 160 156 158 155 150 146 143 139 139 142 146 150 152 146 142 142 129 95 49 15 1 356 359 359 357 356 354 353 353 350 346 343 341 339 341 343 344 346 346 346 347 345 343 344 346 345 345 342 337 339 344 346 346
161 194 179 164 201 233 244 233 196 190 246 237 215 212 207 185 175 178 174 168 168 165 159 157 164 177 173 169 162 156 162 174 172 160 156 157 154 151 146 141 139 140 143 146 150 151 149 150 146 133 115 70 28 11 3 4 4 1 1 360 359 358 354 348 344 342 342 345 347 347 347 347 347 349 347 345 345 344 344 347 349 349 349 350 353 358
197 204 186 186 217 231 237 230 199 194 233 240 206 193 193 180 175 181 179 176 177 172 163 159 161 172 182 177 167 164 166 168 164 157 150 146 147 146 145 146 146 145 146 149 151 151 155 157 150 139 130 96 48 26 13 10 7 6 6 6 5 3 359 352 346 341 342 347 348 347 348 348 348 349 349 348 348 346 344 345 349 356 2 1 359 3